Location: ??
(34.9170°N, 135.5016°E)
Time: 02:14:25
(UTC+00:00)

Cosmos 614 Rocket - Pass Details

Date: 29 October 2020
Orbit: 734 x 763 km, 74.1° (Epoch: 25 November)

Event Time Altitude Azimuth Distance (km) Brightness Sun altitude
Rises 19:49:23 0° 201° (SSW) 3,190 7.0 -18.5°
Reaches altitude 10° 19:51:45 10° 203° (SSW) 2,265 6.3 -18.0°
Maximum altitude 19:56:52 72° 288° (WNW) 787 3.8 -16.9°
Drops below altitude 10° 20:01:58 10° 13° (NNE) 2,259 6.5 -15.9°
Sets 20:04:20 0° 15° (NNE) 3,182 7.3 -15.4°
